TimeCDT,TemperatureF,Dew PointF,Humidity,Sea Level PressureIn,VisibilityMPH,Wind Direction,Wind SpeedMPH,Gust SpeedMPH,PrecipitationIn,Events,Conditions,WindDirDegrees,DateUTC
12:52 AM,30.0,23.0,75,30.42,10.0,Calm,Calm,-,N/A,,Clear,0,2012-10-05 05:52:00
1:52 AM,28.0,23.0,81,30.41,10.0,Calm,Calm,-,N/A,,Clear,0,2012-10-05 06:52:00
2:52 AM,30.9,24.1,76,30.40,10.0,NW,4.6,-,N/A,,Partly Cloudy,320,2012-10-05 07:52:00
3:52 AM,30.0,24.1,79,30.39,10.0,NNW,3.5,-,N/A,,Clear,330,2012-10-05 08:52:00
4:52 AM,26.1,21.9,84,30.39,10.0,West,6.9,-,N/A,,Clear,260,2012-10-05 09:52:00
5:52 AM,26.1,23.0,88,30.40,10.0,SW,5.8,-,N/A,,Partly Cloudy,220,2012-10-05 10:52:00
6:52 AM,27.0,23.0,85,30.41,10.0,NW,5.8,-,N/A,,Overcast,310,2012-10-05 11:52:00
7:52 AM,27.0,23.0,85,30.43,10.0,West,3.5,-,N/A,,Overcast,280,2012-10-05 12:52:00
8:52 AM,32.0,25.0,75,30.42,10.0,WNW,5.8,-,N/A,,Overcast,300,2012-10-05 13:52:00
9:52 AM,37.0,27.0,67,30.44,10.0,WNW,5.8,-,N/A,,Overcast,290,2012-10-05 14:52:00
10:52 AM,41.0,26.6,57,30.38,10.0,NNW,11.5,-,N/A,,Overcast,330,2012-10-05 15:52:00
12:52 PM,45.0,24.1,44,30.41,10.0,NNW,13.8,-,N/A,,Scattered Clouds,330,2012-10-05 17:52:00
1:52 PM,46.9,21.0,36,30.39,10.0,NNW,12.7,18.4,N/A,,Overcast,340,2012-10-05 18:52:00
2:52 PM,46.9,17.1,30,30.38,10.0,NW,15.0,23.0,N/A,,Clear,320,2012-10-05 19:52:00
3:52 PM,46.0,12.0,25,30.37,10.0,NNW,13.8,-,N/A,,Overcast,340,2012-10-05 20:52:00
4:52 PM,46.0,18.0,33,30.38,10.0,NNW,11.5,-,N/A,,Overcast,330,2012-10-05 21:52:00
5:52 PM,45.0,18.0,34,30.39,10.0,NW,11.5,-,N/A,,Overcast,310,2012-10-05 22:52:00
6:52 PM,44.1,19.0,37,30.39,10.0,NW,8.1,-,N/A,,Overcast,310,2012-10-05 23:52:00
7:52 PM,43.0,19.0,38,30.40,10.0,NNW,6.9,-,N/A,,Overcast,340,2012-10-06 00:52:00
8:52 PM,42.1,19.0,40,30.40,10.0,NNW,8.1,-,N/A,,Overcast,330,2012-10-06 01:52:00
9:52 PM,33.1,18.0,54,30.42,10.0,West,8.1,-,N/A,,Clear,280,2012-10-06 02:52:00
10:52 PM,30.9,18.0,59,30.41,10.0,WNW,6.9,-,N/A,,Clear,300,2012-10-06 03:52:00
11:52 PM,28.0,17.1,63,30.42,10.0,WNW,5.8,-,N/A,,Clear,300,2012-10-06 04:52:00